Lincoln, NE

1:54 PM CST on November 12, 2019 (GMT -0600)
Lincoln Municipal

Weather History for KLNK - August, 2019

Change the Weather History Date:

Sunday, August 4, 2019

  Actual Average Record
Temperature  
Mean Temperature 78 °F 77 °F  
Max Temperature 89 °F 88 °F 109 °F (1918)
Min Temperature 66 °F 66 °F 45 °F (1974)
Degree Days  
Heating Degree Days 0 0  
Month to date heating degree days 0 0  
Since 1 June heating degree days 6 17  
Since 1 July heating degree days 0 1  
Cooling Degree Days 13 12  
Month to date cooling degree days 44 48  
Year to date cooling degree days 790 759  
Since 1 June cooling degree days 718 680  
Growing Degree Days 28 (Base 50)    
Moisture  
Dew Point 67 °F    
Average Humidity 73    
Maximum Humidity 93    
Minimum Humidity 53    
Precipitation  
Precipitation 0.00 in 0.10 in 1.68 in (1923)
Month to date precipitation 0.02 0.42  
Year to date precipitation 21.89 18.51  
Snow  
Snow 0.00 in 0.00 in 0.00 in (2006)
Month to date snowfall 0.0 0.0  
Since 1 June snowfall 0.0 0.0  
Since 1 July snowfall 0.0 0.0  
Snow Depth 0.00 in    
Sea Level Pressure  
Sea Level Pressure 30.03 in    
Wind  
Wind Speed 5 mph (SSW)    
Max Wind Speed 13 mph    
Max Gust Speed 19 mph    
Visibility 10 miles    
Events      
T = Trace of Precipitation, MM = Missing Value Source: NWS Daily Summary

Daily Weather History Graph

Daily Weather History Graph

Search for Another Location

Airport or City:

Astronomy

Aug. 04, 2019 Rise Set
Actual Time 6:26 AM CDT 8:39 PM CDT
Civil Twilight 5:55 AM CDT 9:09 PM CDT
Nautical Twilight 5:17 AM CDT 9:47 PM CDT
Astronomical Twilight 4:36 AM CDT 10:28 PM CDT
Moon 10:34 AM CDT (8/4) 11:17 PM CDT (8/4)
Length of Visible Light 15h 14m
Length of Day
14h 13m
Waxing Crescent, 18% of the Moon is Illuminated
Aug 4
Waxing Crescent
Aug 7
First Quarter
Aug 15
Full
Aug 23
Last Quarter
Aug 30
New

Hourly Weather History & Observations

Time (CDT) Temp. Heat Index Dew Point Humidity Pressure Visibility Wind Dir Wind Speed Gust Speed Precip Events Conditions
12:54 AM 69.1 °F - 64.9 °F 87% 30.05 in 10.0 mi Calm Calm - N/A   Mostly Cloudy
1:54 AM 68.0 °F - 64.0 °F 87% 30.05 in 10.0 mi Calm Calm - N/A   Partly Cloudy
2:54 AM 66.0 °F - 64.0 °F 93% 30.06 in 8.0 mi North 4.6 mph - N/A   Scattered Clouds
3:54 AM 66.9 °F - 64.0 °F 90% 30.05 in 10.0 mi Calm Calm - N/A   Overcast
4:54 AM 68.0 °F - 64.0 °F 87% 30.04 in 10.0 mi Calm Calm - N/A   Overcast
5:54 AM 68.0 °F - 64.9 °F 90% 30.05 in 9.0 mi North 4.6 mph - N/A   Overcast
6:54 AM 68.0 °F - 64.9 °F 90% 30.05 in 8.0 mi Calm Calm - N/A   Partly Cloudy
7:54 AM 72.0 °F - 66.0 °F 81% 30.05 in 8.0 mi Calm Calm - N/A   Clear
8:54 AM 75.9 °F - 66.0 °F 71% 30.06 in 10.0 mi SSE 4.6 mph - N/A   Scattered Clouds
9:54 AM 79.0 °F - 66.9 °F 66% 30.06 in 10.0 mi SSW 5.8 mph - N/A   Overcast
10:07 AM 79.0 °F - 66.9 °F 66% 30.09 in 10.0 mi SSW 5.8 mph - N/A   Overcast
10:33 AM 79.0 °F - 68.0 °F 69% 30.09 in 10.0 mi SSW 4.6 mph - N/A   Overcast
10:54 AM 80.1 °F 82.9 °F 69.1 °F 69% 30.06 in 10.0 mi Calm Calm - N/A   Overcast
11:54 AM 82.0 °F 84.9 °F 68.0 °F 62% 30.06 in 10.0 mi SW 4.6 mph - N/A   Mostly Cloudy
12:17 PM 82.9 °F 85.8 °F 68.0 °F 60% 30.08 in 10.0 mi SSW 6.9 mph - N/A   Scattered Clouds
12:54 PM 82.0 °F 85.5 °F 69.1 °F 65% 30.04 in 10.0 mi South 5.8 mph - N/A   Mostly Cloudy
1:54 PM 87.1 °F 91.3 °F 69.1 °F 55% 30.02 in 10.0 mi SSW 8.1 mph - N/A   Partly Cloudy
2:54 PM 88.0 °F 91.4 °F 68.0 °F 51% 30.02 in 10.0 mi SSW 10.4 mph 19.6 mph N/A   Mostly Cloudy
3:54 PM 88.0 °F 91.4 °F 68.0 °F 51% 30.01 in 10.0 mi SSW 6.9 mph - N/A   Partly Cloudy
4:54 PM 88.0 °F 91.4 °F 68.0 °F 51% 29.99 in 10.0 mi Variable 6.9 mph - N/A   Partly Cloudy
5:54 PM 87.1 °F 91.3 °F 69.1 °F 55% 29.97 in 10.0 mi South 9.2 mph - N/A   Partly Cloudy
6:54 PM 86.0 °F 89.4 °F 68.0 °F 55% 29.97 in 10.0 mi SSW 9.2 mph - N/A   Partly Cloudy
7:54 PM 81.0 °F 84.1 °F 69.1 °F 67% 29.97 in 10.0 mi South 5.8 mph - N/A   Clear
8:54 PM 81.0 °F 83.8 °F 68.0 °F 65% 29.99 in 10.0 mi SSW 4.6 mph - N/A   Clear
9:54 PM 77.0 °F - 69.1 °F 76% 30.00 in 10.0 mi South 4.6 mph - N/A   Clear
10:54 PM 77.0 °F - 69.1 °F 76% 30.01 in 10.0 mi South 3.5 mph - N/A   Clear
11:54 PM 73.9 °F - 68.0 °F 82% 29.97 in 10.0 mi South 6.9 mph - N/A   Clear